Regional Weather Roundup
Issued by NWS Newport/Morehead, NC

Current Version | Previous Version | Graphics & Text | Print | Product List | Glossary Off
Versions: 1 2 3 4 5 6 7 8 9 10 11 12 13 14 15 16 17 18 19 20 21 22 23 24 25 26 27 28 29 30 31 32 33 34 35 36 37 38 39 40 41 42 43 44 45 46 47 48 49 50

000
ASUS42 KMHX 240310
RWRMHX
WEATHER ROUNDUP FOR EASTERN NORTH CAROLINA
NATIONAL WEATHER SERVICE NEWPORT/MOREHEAD CITY NC
1100 PM EDT WED JUL 23 2014

NOTE: "FAIR" INDICATES FEW OR NO CLOUDS BELOW 12,000 FEET
WITH NO SIGNIFICANT WEATHER AND/OR OBSTRUCTIONS TO VISIBILITY

NCZ015>017-031-032-045>047-102-103-240400-
NORTH COAST

CITY           SKY/WX    TMP DP  RH WIND       PRES   REMARKS
EDENTON        CLEAR     79  76  91 SW8       29.92S
ELIZABETH CITY CLEAR     79  75  87 S9        29.91F
KITTY HAWK     CLEAR     79  75  87 SW7       29.91F
MANTEO         NOT AVBL

$$

NCZ045>047-081-094-103-104-240400-
CENTRAL COAST

CITY           SKY/WX    TMP DP  RH WIND       PRES   REMARKS
FRISCO         PTCLDY    79  77  94 W13       29.95S
SWANQUARTER      N/A     81 N/A N/A SW13      29.91S

$$

NCZ095-097-098-100-101-240400-
SOUTHERN COAST

CITY           SKY/WX    TMP DP  RH WIND       PRES   REMARKS
BEAUFORT       PTCLDY    81  76  84 SW13      29.96S
CEDAR ISLAND     N/A     79 N/A N/A SW9G15    30.00S
JACKSONVILLE   CLEAR     77  74  90 S5        29.95S
NEWPORT        NOT AVBL
PINEY ISLAND   PTCLDY    79  78  97 SW8       29.95R
WILMINGTON     PTCLDY    79  75  87 SW6       29.95F


$$

NCZ011>013-027>030-043-044-078>080-089-090>093-098-240400-
COASTAL PLAIN

CITY           SKY/WX    TMP DP  RH WIND       PRES   REMARKS
AHOSKIE        CLEAR     75  73  92 S3        29.91S
CLINTON        CLEAR     77  75  93 SW3       29.95S
ELIZABETHTOWN  CLEAR     78  75  92 S6        29.95F
GOLDSBORO      CLEAR     78  78  98 S6        29.92R
GREENVILLE     CLEAR     79  77  94 S6        29.95S
HAVELOCK       CLEAR     78  74  87 S3        29.96S
KENANSVILLE    CLEAR     77  73  86 CALM      29.95S
KINSTON        CLEAR     78  75  89 S3        29.95R
NEW BERN       CLEAR     79  74  84 S3        29.96R
RICHLANDS      CLEAR     75  72  88 SW5       29.95R
ROANOKE RAPIDS NOT AVBL
ROCKY MOUNT    CLEAR     77  73  87 S5        29.92S
WASHINGTON     CLEAR     78  75  91 S6        29.94R
WHITEVILLE     CLEAR     78  75  90 S7        29.95F

$$

AMZ130-135-150-152-154-156-158-170-250-252-270-ANZ085-086-088-633-658-670-240400-
MARINE OBSERVATIONS

STATION/POSITION TIME  TEMP    WIND        PRES    WAVE   SWELL
                       AIR SEA DIR/SP/G            HT/PER HT/PER
                 (UTC) (F)     (DEG/KT/KT) (MB)    (FT/S) (FT/S)
CHESAPEAKE LIGHT NOT AVBL
BUOY 44014       0300   79 79  220/ 12/ 14 1012.2    3/ 5   2/ 7
DUCK             0300   81 74  220/ 12/ 14 1012.1
2E DUCK          0300                        N/A     2/ 8
OREGON INLET     0300   80 85  220/ 15/ 16 1013.2
BUOY 44095       0300      78                N/A     4/ 6
20E OREGON INLET NOT AVBL
HATTERAS CG      0300   79 83  220/  9/ 12 1014.6
DIAMOND BUOY     0300          VRB 17/ 21  1014.1    4/ 4   2/ 7
CAPE LOOKOUT     0200   80     220/ 12/ 16 1014.4
BEAUFORT LAB     0300   80 81  220/  8/ 13 1014.1
30 SE NEW RIVER  0300   80 81  230/ 16/ 19 1014.9    4/ 4   2/ 9
5 SE WRIGHTSVILL 0200   78 81  240/ 16/ 19   N/A
BUOY 41002       0219   82 82  210/ 17/ 21 1017.8    4/ 5   2/ 9
BUOY 41004       0300   82 82  210/ 14/ 16 1015.0    3/ 7   2/ 7

$$


USA.gov is the U.S. government's official web portal to all federal, state and local government web resources and services.